Walhalla, ND

2:53 PM CDT on April 29, 2017 (GMT -0500)
Walhalla

Weather History for K96D - October, 2011

Change the Weather History Date:

Tuesday, October 11, 2011

  Actual Average (KGAF) Record (KGAF)
Temperature  
Mean Temperature 58 °F -  
Max Temperature 71 °F 57 °F 84 °F (2015)
Min Temperature 44 °F 37 °F 23 °F (1970)
Degree Days  
Heating Degree Days 8    
Growing Degree Days 8 (Base 50)    
Moisture  
Dew Point 47 °F    
Average Humidity 73    
Maximum Humidity 100    
Minimum Humidity 29    
Precipitation  
Precipitation 0.00 in - - ()
Sea Level Pressure  
Sea Level Pressure 29.67 in    
Wind  
Wind Speed 6 mph (South)    
Max Wind Speed 13 mph    
Max Gust Speed 17 mph    
Visibility 10 miles    
Events      
Averages and records for this station are not official NWS values.
T = Trace of Precipitation, MM = Missing Value Source: NWS Daily Summary

Daily Weather History Graph

Daily Weather History Graph

Search for Another Location

Airport or City:

Trip Planner

Search our weather history database for the weather conditions in past years. The results will help you decide how hot, cold, wet, or windy it might be!

Date:

Astronomy

Oct. 11, 2011 Rise Set
Actual Time 7:45 AM CDT 6:50 PM CDT
Civil Twilight 7:13 AM CDT 7:21 PM CDT
Nautical Twilight 6:37 AM CDT 7:58 PM CDT
Astronomical Twilight 6:00 AM CDT 8:35 PM CDT
Moon 6:17 PM CDT (10/11) 7:28 AM CDT (10/11)
Length of Visible Light 12h 07m
Length of Day
11h 04m
Full, 100% of the Moon is Illuminated
Oct 11
Full
Oct 11
Full
Oct 19
Last Quarter
Oct 26
New
Nov 2
First Quarter

Hourly Weather History & Observations

Time (CDT) Temp. Windchill Dew Point Humidity Pressure Visibility Wind Dir Wind Speed Gust Speed Precip Events Conditions
12:35 AM 50.0 °F - 48.2 °F 94% 29.69 in 10.0 mi South 5.8 mph - N/A   Mostly Cloudy
12:55 AM 50.0 °F - 48.2 °F 94% 29.69 in 10.0 mi South 6.9 mph - N/A   Scattered Clouds
1:15 AM 50.0 °F - 50.0 °F 100% 29.68 in 10.0 mi South 6.9 mph - N/A   Mostly Cloudy
1:55 AM 50.0 °F - 50.0 °F 100% 29.68 in 10.0 mi SSE 5.8 mph - N/A   Overcast
2:15 AM 50.0 °F - 50.0 °F 100% 29.68 in 10.0 mi South 6.9 mph - N/A   Overcast
2:35 AM 50.0 °F - 48.2 °F 94% 29.67 in 10.0 mi South 5.8 mph - N/A   Scattered Clouds
2:55 AM 48.2 °F - 48.2 °F 100% 29.67 in 10.0 mi South 4.6 mph - N/A   Clear
3:35 AM 48.2 °F - 48.2 °F 100% 29.66 in 10.0 mi SE 5.8 mph - N/A   Clear
3:55 AM 46.4 °F 45.2 °F 46.4 °F 100% 29.66 in 10.0 mi ESE 3.5 mph - N/A   Clear
4:15 AM 46.4 °F 44.3 °F 46.4 °F 100% 29.66 in 10.0 mi East 4.6 mph - N/A   Clear
4:35 AM 46.4 °F 45.2 °F 46.4 °F 100% 29.66 in 10.0 mi East 3.5 mph - N/A   Clear
5:15 AM 46.4 °F 44.3 °F 46.4 °F 100% 29.67 in 10.0 mi SSE 4.6 mph - N/A   Clear
5:35 AM 44.6 °F 43.1 °F 44.6 °F 100% 29.66 in 10.0 mi SE 3.5 mph - N/A   Clear
5:55 AM 46.4 °F 45.2 °F 46.4 °F 100% 29.67 in 10.0 mi South 3.5 mph - N/A   Clear
6:15 AM 46.4 °F 44.3 °F 46.4 °F 100% 29.67 in 10.0 mi South 4.6 mph - N/A   Clear
6:35 AM 44.6 °F - 44.6 °F 100% 29.67 in 10.0 mi Calm Calm - N/A   Clear
6:55 AM 46.4 °F 45.2 °F 46.4 °F 100% 29.67 in 10.0 mi WSW 3.5 mph - N/A   Clear
7:15 AM 46.4 °F - 46.4 °F 100% 29.67 in 10.0 mi Calm Calm - N/A   Clear
8:15 AM 48.2 °F - 46.4 °F 93% 29.67 in 10.0 mi SW 6.9 mph - N/A   Clear
8:35 AM 48.2 °F - 46.4 °F 93% 29.67 in 10.0 mi SW 3.5 mph - N/A   Clear
8:55 AM 48.2 °F - 46.4 °F 93% 29.68 in 10.0 mi Calm Calm - N/A   Clear
9:15 AM 50.0 °F - 46.4 °F 87% 29.69 in 10.0 mi SW 3.5 mph - N/A   Clear
9:55 AM 55.4 °F - 46.4 °F 72% 29.68 in 10.0 mi SW 6.9 mph - N/A   Clear
10:15 AM 57.2 °F - 44.6 °F 63% 29.69 in 10.0 mi SW 6.9 mph - N/A   Clear
10:35 AM 59.0 °F - 42.8 °F 55% 29.68 in 10.0 mi SW 6.9 mph - N/A   Clear
10:55 AM 60.8 °F - 44.6 °F 55% 29.68 in 10.0 mi SW 8.1 mph - N/A   Clear
11:15 AM 62.6 °F - 44.6 °F 52% 29.68 in 10.0 mi WSW 8.1 mph - N/A   Clear
11:35 AM 62.6 °F - 44.6 °F 52% 29.68 in 10.0 mi WSW 8.1 mph - N/A   Clear
11:55 AM 64.4 °F - 44.6 °F 49% 29.68 in 10.0 mi SW 10.4 mph - N/A   Clear
12:15 PM 66.2 °F - 44.6 °F 46% 29.68 in 10.0 mi SSW 12.7 mph 16.1 mph N/A   Clear
12:35 PM 66.2 °F - 44.6 °F 46% 29.68 in 10.0 mi SSW 6.9 mph - N/A   Clear
12:55 PM 66.2 °F - 44.6 °F 46% 29.68 in 10.0 mi South 8.1 mph - N/A   Clear
1:15 PM 68.0 °F - 42.8 °F 40% 29.68 in 10.0 mi South 11.5 mph - N/A   Clear
1:35 PM 68.0 °F - 42.8 °F 40% 29.67 in 10.0 mi SSW 9.2 mph 16.1 mph N/A   Clear
1:55 PM 68.0 °F - 41.0 °F 37% 29.67 in 10.0 mi South 10.4 mph 17.3 mph N/A   Clear
2:15 PM 69.8 °F - 41.0 °F 35% 29.66 in 10.0 mi SSW 5.8 mph - N/A   Clear
2:35 PM 69.8 °F - 41.0 °F 35% 29.66 in 10.0 mi South 11.5 mph 17.3 mph N/A   Clear
3:15 PM 71.6 °F - 37.4 °F 29% 29.65 in 10.0 mi South 12.7 mph 17.3 mph N/A   Clear
3:35 PM 69.8 °F - 46.4 °F 43% 29.65 in 10.0 mi SE 11.5 mph - N/A   Clear
3:55 PM 68.0 °F - 48.2 °F 49% 29.65 in 10.0 mi SE 12.7 mph - N/A   Clear
4:15 PM 68.0 °F - 48.2 °F 49% 29.65 in 10.0 mi SE 11.5 mph - N/A   Clear
4:35 PM 68.0 °F - 48.2 °F 49% 29.65 in 10.0 mi SE 10.4 mph - N/A   Clear
4:55 PM 66.2 °F - 48.2 °F 52% 29.65 in 10.0 mi SE 8.1 mph - N/A   Clear
5:55 PM 64.4 °F - 50.0 °F 59% 29.65 in 10.0 mi SE 8.1 mph - N/A   Clear
6:35 PM 60.8 °F - 50.0 °F 68% 29.65 in 10.0 mi ESE 4.6 mph - N/A   Clear
6:55 PM 59.0 °F - 50.0 °F 72% 29.65 in 10.0 mi SE 3.5 mph - N/A   Clear
7:15 PM 59.0 °F - 50.0 °F 72% 29.66 in 10.0 mi Calm Calm - N/A   Partly Cloudy
7:35 PM 59.0 °F - 50.0 °F 72% 29.66 in 10.0 mi ESE 5.8 mph - N/A   Mostly Cloudy
7:55 PM 59.0 °F - 50.0 °F 72% 29.66 in 10.0 mi SSE 5.8 mph - N/A   Mostly Cloudy
8:15 PM 59.0 °F - 50.0 °F 72% 29.66 in 10.0 mi SSE 4.6 mph - N/A   Overcast
8:35 PM 59.0 °F - 50.0 °F 72% 29.66 in 10.0 mi South 5.8 mph - N/A   Overcast
8:55 PM 59.0 °F - 50.0 °F 72% 29.66 in 10.0 mi SSE 3.5 mph - N/A   Overcast
9:15 PM 59.0 °F - 50.0 °F 72% 29.66 in 10.0 mi SE 3.5 mph - N/A   Mostly Cloudy
9:35 PM 59.0 °F - 50.0 °F 72% 29.67 in 10.0 mi South 4.6 mph - N/A   Mostly Cloudy
9:55 PM 59.0 °F - 51.8 °F 77% 29.66 in 10.0 mi South 5.8 mph - N/A   Overcast
10:35 PM 57.2 °F - 51.8 °F 82% 29.65 in 10.0 mi ESE 3.5 mph - N/A   Mostly Cloudy
10:55 PM 57.2 °F - 51.8 °F 82% 29.64 in 10.0 mi SSE 3.5 mph - N/A   Overcast
11:15 PM 57.2 °F - 51.8 °F 82% 29.64 in 10.0 mi SSE 3.5 mph - N/A   Overcast
11:35 PM 57.2 °F - 51.8 °F 82% 29.64 in 10.0 mi SSW 3.5 mph - N/A Thunderstorm Overcast